Regional Weather Roundup
Issued by NWS

Home | Current Version | Previous Version | Text Only | Print | Product List | Glossary On
Versions: 1 2 3 4 5 6 7 8 9 10 11 12 13 14 15 16 17 18 19 20 21 22 23 24 25 26 27 28 29 30 31 32 33 34 35 36 37 38 39 40 41 42 43 44 45 46 47 48 49 50
712
ASUS43 KLSX 110057
RWRMO

WEATHER SUMMARY FOR MISSOURI
NATIONAL WEATHER SERVICE SPRINGFIELD MO
700 PM CST WED FEB 10 2016

NOTE: "FAIR" INDICATES FEW OR NO CLOUDS BELOW 12,000 FEET WITH NO
       SIGNIFICANT WEATHER AND/OR OBSTRUCTIONS TO VISIBILITY.
       CURRENT SKY AND/OR WEATHER CONDITIONS ARE NOT AVAILABLE FOR
       CHILLICOTHE AND FARMINGTON.

MOZ001>031-035>038-043-044-053-054-110200-
...NORTHERN AND WESTERN MISSOURI...

CITY           SKY/WX    TMP DP  RH WIND       PRES   REMARKS
KANSAS CTY INT PTCLDY    40  21  46 E14       29.97R
LEE`S SUMMIT   CLEAR     38  20  48 E8        29.98R
ST JOSEPH      CLEAR     39  20  46 E13       29.99R
CHILLICOTHE      N/A     27  20  75 E7        30.08R WCI  19

$$
MOZ066>068-077>081-088>096-101>105-110200-
...SOUTHWEST MISSOURI...

CITY           SKY/WX    TMP DP  RH WIND       PRES   REMARKS
SPRINGFIELD    CLEAR     36  19  50 SE5       29.97R
JOPLIN         CLEAR     47  24  40 SE5       29.95R

$$
MOZ032>034-039>042-045>050-055>058-069>072-110200-
...CENTRAL MISSOURI...

CITY           SKY/WX    TMP DP  RH WIND       PRES   REMARKS
COLUMBIA       NOT AVBL
JEFFERSON CITY MOCLDY    26  18  71 E9        30.10R WCI  17
SEDALIA        CLEAR     30  20  66 E9        30.05R WCI  22

$$
MOZ051-052-059>065-110200-
...EAST CENTRAL MISSOURI...

CITY           SKY/WX    TMP DP  RH WIND       PRES   REMARKS
ST LOUIS INTL  FLURRIES  23  17  78 E6        30.14S WCI  16

$$
MOZ072>076-082>087-097>100-106>115-110200-
...SOUTH CENTRAL AND SOUTHEAST MISSOURI...

CITY           SKY/WX    TMP DP  RH WIND       PRES   REMARKS
CAPE GIRARDEAU CLOUDY    24  19  81 E6        30.17S WCI  17
POPLAR BLUFF   CLOUDY    29  16  58 E7        30.12F WCI  22
WEST PLAINS    CLEAR     35  13  40 SE3       30.05R

$$



USA.gov is the U.S. government's official web portal to all federal, state and local government web resources and services.